Flag for U.S.A. Weather past 2 weeks in Wichita, Kansas, U.S.A.

Now
44 °F

Passing clouds.


Feels Like: 38 °F
Forecast: 33 / 46 °F
Wind: 13 mph from Southwest

Location: Wichita Mid-Continent Airport

Current Time: Dec 20, 2014 at 11:41:41 AM

Latest Report: Dec 20, 2014 at 10:53 AM


Visibility: 10 mi

Pressure: 30.18 "Hg

Humidity: 76%

Dew point: 37 °F

Location of WichitaLocation

Historic Weather in Wichita — Graph

°F

Wichita temperature yesterday

Maximum temperature yesterday: 38 °F (at 8:53 PM)
Minimum temperature yesterday: 31 °F (at 12:53 AM)
Average temperature yesterday: 34 °F

Past Weeks' High & Low Weather Summary

 TemperatureHumidityPressure
High59 °F (Dec 8, 2:53 PM)97% (Dec 5, 10:53 AM)30.55 "Hg (Dec 5, 10:53 AM)
Low29 °F (Dec 16, 10:53 PM)32% (Dec 8, 3:53 PM)29.52 "Hg (Dec 15, 12:53 AM)
Average42 °F80%30.19 "Hg
* Reported Dec 5 9:53 AM — Dec 20 9:53 AM, Wichita, Weather by CustomWeather, © 2014

Note: Actual official high and low records may vary slightly from our data, if they occured in-between our weather recording intervals... More about our weather records

Advertising

Wichita weather history for previous 24 hours

 ConditionsComfort  
Time TempWeatherWind HumidityBarometerVisibility
9:53 AM
Dec 20
41 °FPartly sunny.12 mph82%30.18 "Hg7 mi
8:53 AM38 °FFog.12 mph90%30.17 "Hg4 mi
7:53 AM35 °FFog.9 mph92%30.20 "Hg3 mi
7:03 AM34 °FFog.9 mph88%30.17 "Hg4 mi
6:53 AM33 °FFog.10 mph88%30.20 "Hg3 mi
5:53 AM33 °FFog.9 mph92%30.18 "Hg4 mi
4:53 AM34 °FFog.10 mph88%30.17 "Hg4 mi
3:53 AM34 °FFog.10 mph88%30.18 "Hg6 mi
2:53 AM35 °FFog.8 mph85%30.18 "Hg6 mi
1:53 AM36 °FPassing clouds.8 mph89%30.18 "Hg7 mi
12:53 AM38 °FOvercast.9 mph86%30.19 "Hg8 mi
11:53 PM
Dec 19
38 °FOvercast.7 mph86%30.21 "Hg8 mi
10:53 PM38 °FOvercast.8 mph86%30.19 "Hg8 mi
9:53 PM38 °FOvercast.7 mph86%30.19 "Hg8 mi
8:53 PM38 °FOvercast.8 mph83%30.21 "Hg8 mi
7:53 PM37 °FOvercast.7 mph86%30.20 "Hg7 mi
6:53 PM37 °FOvercast.7 mph86%30.21 "Hg7 mi
5:53 PM37 °FOvercast.6 mph86%30.21 "Hg7 mi
5:00 PM37 °FMore clouds than sun.6 mph82%30.17 "Hg7 mi
3:53 PM37 °FMostly cloudy.5 mph82%30.21 "Hg8 mi
2:53 PM37 °FMostly cloudy.3 mph82%30.21 "Hg8 mi
1:53 PM35 °FOvercast.3 mph85%30.22 "Hg7 mi
12:53 PM35 °FMostly cloudy.3 mph85%30.25 "Hg7 mi
11:53 AM34 °FFog.No wind85%30.27 "Hg6 mi
Weather by CustomWeather, © 2014

See weather overviewHow to use our weather pages